Time,TemperatureF,DewpointF,PressureIn,WindDirection,WindDirectionDegrees,WindSpeedMPH,WindSpeedGustMPH,Humidity,HourlyPrecipIn,Conditions,Clouds,dailyrainin,SolarRadiationWatts/m^2,SoftwareType,DateUTC
2013-11-09 00:00:00,42.7,32.5,30.18,SSW,195,3.0,3.0,67,0.00,,,0.00,0,Wunderground v.1.15,2013-11-09 05:00:00,
2013-11-09 00:05:00,42.8,32.6,30.18,South,183,3.0,3.0,67,0.00,,,0.00,0,Wunderground v.1.15,2013-11-09 05:05:00,
2013-11-09 00:10:00,42.8,32.2,30.18,South,190,3.0,7.0,66,0.00,,,0.00,0,Wunderground v.1.15,2013-11-09 05:10:00,
2013-11-09 00:15:00,42.9,32.3,30.18,SSW,202,4.0,7.0,66,0.00,,,0.00,0,Wunderground v.1.15,2013-11-09 05:15:00,
2013-11-09 00:25:00,43.0,32.4,30.17,South,178,3.0,8.0,66,0.00,,,0.00,0,Wunderground v.1.15,2013-11-09 05:25:00,
2013-11-09 00:35:00,43.0,32.4,30.17,ESE,119,4.0,5.0,66,0.00,,,0.00,0,Wunderground v.1.15,2013-11-09 05:35:00,
2013-11-09 00:45:00,42.9,32.3,30.17,South,188,4.0,4.0,66,0.00,,,0.00,0,Wunderground v.1.15,2013-11-09 05:45:00,
2013-11-09 00:50:00,42.9,32.3,30.17,South,190,3.0,3.0,66,0.00,,,0.00,0,Wunderground v.1.15,2013-11-09 05:50:00,
2013-11-09 00:55:00,42.8,32.2,30.17,South,178,3.0,4.0,66,0.00,,,0.00,0,Wunderground v.1.15,2013-11-09 05:55:00,
2013-11-09 01:05:00,42.7,32.1,30.17,South,187,3.0,3.0,66,0.00,,,0.00,0,Wunderground v.1.15,2013-11-09 06:05:00,
2013-11-09 01:15:00,42.7,32.1,30.16,SE,130,3.0,4.0,66,0.00,,,0.00,0,Wunderground v.1.15,2013-11-09 06:15:00,
2013-11-09 01:25:00,42.6,32.4,30.15,South,179,4.0,6.0,67,0.00,,,0.00,0,Wunderground v.1.15,2013-11-09 06:25:00,
2013-11-09 01:30:00,42.5,32.3,30.15,SSW,193,4.0,4.0,67,0.00,,,0.00,0,Wunderground v.1.15,2013-11-09 06:30:00,
2013-11-09 01:40:00,42.5,32.3,30.14,South,188,4.0,4.0,67,0.00,,,0.00,0,Wunderground v.1.15,2013-11-09 06:40:00,
2013-11-09 01:50:00,42.6,32.4,30.14,South,174,3.0,8.0,67,0.00,,,0.00,0,Wunderground v.1.15,2013-11-09 06:50:00,
2013-11-09 02:00:00,42.9,32.3,30.13,SSW,199,4.0,8.0,66,0.00,,,0.00,0,Wunderground v.1.15,2013-11-09 07:00:00,
2013-11-09 02:10:00,42.9,32.3,30.12,South,190,4.0,4.0,66,0.00,,,0.00,0,Wunderground v.1.15,2013-11-09 07:10:00,
2013-11-09 02:20:00,43.0,32.4,30.12,SSW,193,4.0,7.0,66,0.00,,,0.00,0,Wunderground v.1.15,2013-11-09 07:20:00,
2013-11-09 02:30:00,43.1,32.1,30.11,SSW,194,5.0,5.0,65,0.00,,,0.00,0,Wunderground v.1.15,2013-11-09 07:30:00,
2013-11-09 02:40:00,43.2,32.2,30.11,South,178,4.0,4.0,65,0.00,,,0.00,0,Wunderground v.1.15,2013-11-09 07:40:00,
2013-11-09 02:50:00,43.2,32.2,30.11,South,189,3.0,6.0,65,0.00,,,0.00,0,Wunderground v.1.15,2013-11-09 07:50:00,
2013-11-09 03:00:00,43.2,32.2,30.11,SE,144,4.0,4.0,65,0.00,,,0.00,0,Wunderground v.1.15,2013-11-09 08:00:00,
2013-11-09 03:10:00,43.3,32.3,30.11,SSW,211,3.0,7.0,65,0.00,,,0.00,0,Wunderground v.1.15,2013-11-09 08:10:00,
2013-11-09 03:20:00,43.3,32.3,30.09,South,182,5.0,5.0,65,0.00,,,0.00,0,Wunderground v.1.15,2013-11-09 08:20:00,
2013-11-09 03:30:00,43.3,32.3,30.09,SSE,160,5.0,6.0,65,0.00,,,0.00,0,Wunderground v.1.15,2013-11-09 08:30:00,
2013-11-09 03:40:00,43.2,32.2,30.09,South,184,3.0,6.0,65,0.00,,,0.00,0,Wunderground v.1.15,2013-11-09 08:40:00,
2013-11-09 03:50:00,43.2,32.2,30.08,SSW,203,4.0,4.0,65,0.00,,,0.00,0,Wunderground v.1.15,2013-11-09 08:50:00,
2013-11-09 04:00:00,43.4,32.4,30.08,South,178,5.0,5.0,65,0.00,,,0.00,0,Wunderground v.1.15,2013-11-09 09:00:00,
2013-11-09 04:10:00,43.3,32.3,30.07,SSW,204,3.0,4.0,65,0.00,,,0.00,0,Wunderground v.1.15,2013-11-09 09:10:00,
2013-11-09 04:20:00,43.4,32.0,30.07,SSW,194,3.0,3.0,64,0.00,,,0.00,0,Wunderground v.1.15,2013-11-09 09:20:00,
2013-11-09 04:30:00,43.5,32.1,30.07,SSE,166,4.0,4.0,64,0.00,,,0.00,0,Wunderground v.1.15,2013-11-09 09:30:00,
2013-11-09 04:40:00,43.6,32.2,30.07,SSW,193,2.0,2.0,64,0.00,,,0.00,0,Wunderground v.1.15,2013-11-09 09:40:00,
2013-11-09 04:50:00,43.7,31.9,30.06,SE,142,3.0,4.0,63,0.00,,,0.00,0,Wunderground v.1.15,2013-11-09 09:50:00,
2013-11-09 04:55:00,43.7,31.9,30.06,SSW,201,4.0,4.0,63,0.00,,,0.00,0,Wunderground v.1.15,2013-11-09 09:55:00,
2013-11-09 05:05:00,43.8,32.0,30.05,SSW,211,4.0,5.0,63,0.00,,,0.00,0,Wunderground v.1.15,2013-11-09 10:05:00,
2013-11-09 05:15:00,43.9,31.7,30.05,SSW,196,4.0,8.0,62,0.00,,,0.00,0,Wunderground v.1.15,2013-11-09 10:15:00,
2013-11-09 05:20:00,43.9,31.7,30.05,SSE,168,3.0,9.0,62,0.00,,,0.00,0,Wunderground v.1.15,2013-11-09 10:20:00,
2013-11-09 05:30:00,44.1,31.5,30.05,SSW,206,4.0,4.0,61,0.00,,,0.00,0,Wunderground v.1.15,2013-11-09 10:30:00,
2013-11-09 05:40:00,44.3,31.7,30.05,South,179,4.0,4.0,61,0.00,,,0.00,0,Wunderground v.1.15,2013-11-09 10:40:00,
2013-11-09 05:50:00,44.4,31.4,30.04,South,185,4.0,4.0,60,0.00,,,0.00,0,Wunderground v.1.15,2013-11-09 10:50:00,
2013-11-09 06:00:00,44.6,31.6,30.04,SSW,200,3.0,4.0,60,0.00,,,0.00,0,Wunderground v.1.15,2013-11-09 11:00:00,
2013-11-09 06:10:00,44.6,31.6,30.03,SSW,192,3.0,5.0,60,0.00,,,0.00,0,Wunderground v.1.15,2013-11-09 11:10:00,
2013-11-09 06:20:00,44.7,31.7,30.03,South,190,4.0,6.0,60,0.00,,,0.00,0,Wunderground v.1.15,2013-11-09 11:20:00,
2013-11-09 06:30:00,44.7,31.7,30.03,SSW,211,5.0,5.0,60,0.00,,,0.00,0,Wunderground v.1.15,2013-11-09 11:30:00,
2013-11-09 06:35:00,44.6,31.6,30.03,SSE,165,5.0,5.0,60,0.00,,,0.00,0,Wunderground v.1.15,2013-11-09 11:35:00,
2013-11-09 06:45:00,44.4,31.8,30.02,South,176,5.0,8.0,61,0.00,,,0.00,0,Wunderground v.1.15,2013-11-09 11:45:00,
2013-11-09 06:55:00,44.3,31.7,30.02,SW,228,5.0,5.0,61,0.00,,,0.00,0,Wunderground v.1.15,2013-11-09 11:55:00,
2013-11-09 07:05:00,44.1,31.5,30.01,South,184,4.0,4.0,61,0.00,,,0.00,0,Wunderground v.1.15,2013-11-09 12:05:00,
2013-11-09 07:10:00,44.0,31.8,30.01,SSW,202,4.0,4.0,62,0.00,,,0.00,0,Wunderground v.1.15,2013-11-09 12:10:00,
2013-11-09 07:20:00,43.9,32.1,30.01,South,178,4.0,4.0,63,0.00,,,0.00,0,Wunderground v.1.15,2013-11-09 12:20:00,
2013-11-09 07:30:00,44.2,32.4,30.01,WSW,249,5.0,5.0,63,0.00,,,0.00,9,Wunderground v.1.15,2013-11-09 12:30:00,
2013-11-09 07:40:00,44.2,32.4,30.00,SW,225,4.0,6.0,63,0.00,,,0.00,18,Wunderground v.1.15,2013-11-09 12:40:00,
2013-11-09 07:50:00,44.4,32.6,30.01,WSW,240,5.0,5.0,63,0.00,,,0.00,25,Wunderground v.1.15,2013-11-09 12:50:00,
2013-11-09 08:00:00,44.7,32.9,30.01,WSW,252,5.0,5.0,63,0.00,,,0.00,28,Wunderground v.1.15,2013-11-09 13:00:00,
2013-11-09 08:10:00,45.2,32.5,30.01,WSW,252,7.0,10.0,61,0.00,,,0.00,54,Wunderground v.1.15,2013-11-09 13:10:00,
2013-11-09 08:20:00,45.6,32.9,30.00,SSW,210,7.0,9.0,61,0.00,,,0.00,91,Wunderground v.1.15,2013-11-09 13:20:00,
2013-11-09 08:30:00,45.8,32.7,30.01,SW,219,7.0,9.0,60,0.00,,,0.00,90,Wunderground v.1.15,2013-11-09 13:30:00,
2013-11-09 08:40:00,46.1,33.0,30.01,West,269,8.0,14.0,60,0.00,,,0.00,153,Wunderground v.1.15,2013-11-09 13:40:00,
2013-11-09 08:50:00,46.3,33.2,30.00,WSW,251,10.0,10.0,60,0.00,,,0.00,185,Wunderground v.1.15,2013-11-09 13:50:00,
2013-11-09 08:55:00,46.4,33.3,30.00,West,265,9.0,10.0,60,0.00,,,0.00,197,Wunderground v.1.15,2013-11-09 13:55:00,
2013-11-09 09:05:00,46.6,33.9,30.00,West,274,10.0,10.0,61,0.00,,,0.00,229,Wunderground v.1.15,2013-11-09 14:05:00,
2013-11-09 09:10:00,46.8,34.0,30.00,West,265,9.0,9.0,61,0.00,,,0.00,239,Wunderground v.1.15,2013-11-09 14:10:00,
2013-11-09 09:20:00,47.1,34.3,29.99,West,273,9.0,13.0,61,0.00,,,0.00,264,Wunderground v.1.15,2013-11-09 14:20:00,
2013-11-09 09:30:00,47.5,34.7,29.99,West,265,10.0,11.0,61,0.00,,,0.00,267,Wunderground v.1.15,2013-11-09 14:30:00,
2013-11-09 09:40:00,47.8,35.0,29.98,WSW,248,10.0,12.0,61,0.00,,,0.00,279,Wunderground v.1.15,2013-11-09 14:40:00,
2013-11-09 09:50:00,48.3,35.5,29.98,WSW,242,9.0,9.0,61,0.00,,,0.00,276,Wunderground v.1.15,2013-11-09 14:50:00,
2013-11-09 10:00:00,48.6,36.2,29.97,SW,234,11.0,12.0,62,0.00,,,0.00,346,Wunderground v.1.15,2013-11-09 15:00:00,
2013-11-09 10:10:00,49.1,36.6,29.97,WSW,248,10.0,10.0,62,0.00,,,0.00,371,Wunderground v.1.15,2013-11-09 15:10:00,
2013-11-09 10:20:00,49.7,37.2,29.97,SW,236,10.0,16.0,62,0.00,,,0.00,403,Wunderground v.1.15,2013-11-09 15:20:00,
2013-11-09 10:30:00,50.3,37.8,29.97,WSW,248,11.0,11.0,62,0.00,,,0.00,399,Wunderground v.1.15,2013-11-09 15:30:00,
2013-11-09 10:40:00,50.8,38.7,29.96,West,269,12.0,12.0,63,0.00,,,0.00,415,Wunderground v.1.15,2013-11-09 15:40:00,
2013-11-09 10:45:00,51.0,38.4,29.96,WSW,250,12.0,13.0,62,0.00,,,0.00,420,Wunderground v.1.15,2013-11-09 15:45:00,
2013-11-09 10:55:00,51.5,38.9,29.96,West,269,13.0,20.0,62,0.00,,,0.00,434,Wunderground v.1.15,2013-11-09 15:55:00,
2013-11-09 11:05:00,52.2,39.1,29.95,West,278,14.0,14.0,61,0.00,,,0.00,448,Wunderground v.1.15,2013-11-09 16:05:00,
2013-11-09 11:10:00,52.7,40.0,29.95,WSW,251,14.0,14.0,62,0.00,,,0.00,450,Wunderground v.1.15,2013-11-09 16:10:00,
2013-11-09 11:20:00,53.1,40.0,29.95,SW,236,13.0,13.0,61,0.00,,,0.00,464,Wunderground v.1.15,2013-11-09 16:20:00,
2013-11-09 11:30:00,53.5,40.4,29.94,West,266,13.0,17.0,61,0.00,,,0.00,471,Wunderground v.1.15,2013-11-09 16:30:00,
2013-11-09 11:40:00,53.5,40.4,29.94,West,267,13.0,14.0,61,0.00,,,0.00,478,Wunderground v.1.15,2013-11-09 16:40:00,
2013-11-09 11:50:00,54.0,40.4,29.94,WSW,252,13.0,13.0,60,0.00,,,0.00,482,Wunderground v.1.15,2013-11-09 16:50:00,
2013-11-09 12:00:00,54.4,40.8,29.93,West,264,13.0,13.0,60,0.00,,,0.00,487,Wunderground v.1.15,2013-11-09 17:00:00,
2013-11-09 12:10:00,55.0,40.9,29.93,SW,223,13.0,13.0,59,0.00,,,0.00,490,Wunderground v.1.15,2013-11-09 17:10:00,
2013-11-09 12:20:00,55.5,41.0,29.92,WSW,246,12.0,12.0,58,0.00,,,0.00,490,Wunderground v.1.15,2013-11-09 17:20:00,
2013-11-09 12:30:00,56.0,41.9,29.92,WSW,254,13.0,13.0,59,0.00,,,0.00,494,Wunderground v.1.15,2013-11-09 17:30:00,
2013-11-09 12:40:00,56.6,42.0,29.91,West,267,10.0,13.0,58,0.00,,,0.00,490,Wunderground v.1.15,2013-11-09 17:40:00,
2013-11-09 12:45:00,56.6,41.5,29.92,WSW,245,11.0,13.0,57,0.00,,,0.00,489,Wunderground v.1.15,2013-11-09 17:45:00,
2013-11-09 12:55:00,56.8,41.7,29.91,WSW,257,11.0,18.0,57,0.00,,,0.00,487,Wunderground v.1.15,2013-11-09 17:55:00,
2013-11-09 13:05:00,57.0,41.9,29.90,WSW,254,12.0,23.0,57,0.00,,,0.00,482,Wunderground v.1.15,2013-11-09 18:05:00,
2013-11-09 13:15:00,57.2,42.5,29.91,WSW,245,14.0,19.0,58,0.00,,,0.00,478,Wunderground v.1.15,2013-11-09 18:15:00,
2013-11-09 13:25:00,58.0,43.3,29.91,West,269,12.0,17.0,58,0.00,,,0.00,466,Wunderground v.1.15,2013-11-09 18:25:00,
2013-11-09 13:35:00,58.2,42.1,29.91,WSW,250,13.0,13.0,55,0.00,,,0.00,464,Wunderground v.1.15,2013-11-09 18:35:00,
2013-11-09 13:45:00,58.3,43.1,29.90,West,271,15.0,15.0,57,0.00,,,0.00,452,Wunderground v.1.15,2013-11-09 18:45:00,
2013-11-09 13:55:00,58.2,42.6,29.90,West,263,16.0,18.0,56,0.00,,,0.00,455,Wunderground v.1.15,2013-11-09 18:55:00,
2013-11-09 14:10:00,58.4,42.3,29.90,West,266,16.0,23.0,55,0.00,,,0.00,422,Wunderground v.1.15,2013-11-09 19:10:00,
2013-11-09 14:15:00,58.4,42.3,29.90,West,277,15.0,23.0,55,0.00,,,0.00,413,Wunderground v.1.15,2013-11-09 19:15:00,
2013-11-09 14:25:00,58.4,42.3,29.90,WSW,255,17.0,20.0,55,0.00,,,0.00,406,Wunderground v.1.15,2013-11-09 19:25:00,
2013-11-09 14:35:00,58.8,42.2,29.90,West,259,15.0,20.0,54,0.00,,,0.00,378,Wunderground v.1.15,2013-11-09 19:35:00,
2013-11-09 14:45:00,58.7,42.1,29.90,West,259,16.0,25.0,54,0.00,,,0.00,76,Wunderground v.1.15,2013-11-09 19:45:00,
2013-11-09 14:55:00,58.9,42.3,29.90,WSW,254,18.0,19.0,54,0.00,,,0.00,355,Wunderground v.1.15,2013-11-09 19:55:00,
2013-11-09 15:05:00,59.4,42.7,29.90,WSW,257,15.0,16.0,54,0.00,,,0.00,366,Wunderground v.1.15,2013-11-09 20:05:00,
2013-11-09 15:20:00,59.6,42.4,29.90,West,265,16.0,20.0,53,0.00,,,0.00,320,Wunderground v.1.15,2013-11-09 20:20:00,
2013-11-09 15:30:00,59.3,42.2,29.90,West,261,14.0,14.0,53,0.00,,,0.00,257,Wunderground v.1.15,2013-11-09 20:30:00,
2013-11-09 15:35:00,59.1,42.0,29.90,West,262,15.0,15.0,53,0.00,,,0.00,98,Wunderground v.1.15,2013-11-09 20:35:00,
2013-11-09 15:45:00,59.1,42.5,29.91,West,261,15.0,19.0,54,0.00,,,0.00,70,Wunderground v.1.15,2013-11-09 20:45:00,
2013-11-09 15:55:00,59.0,42.4,29.91,WSW,245,12.0,14.0,54,0.00,,,0.00,88,Wunderground v.1.15,2013-11-09 20:55:00,
2013-11-09 16:05:00,58.9,42.3,29.91,West,270,14.0,24.0,54,0.00,,,0.00,56,Wunderground v.1.15,2013-11-09 21:05:00,
2013-11-09 16:15:00,58.9,42.3,29.91,West,263,13.0,14.0,54,0.00,,,0.00,62,Wunderground v.1.15,2013-11-09 21:15:00,
2013-11-09 16:25:00,58.7,41.6,29.91,West,259,14.0,18.0,53,0.00,,,0.00,44,Wunderground v.1.15,2013-11-09 21:25:00,
2013-11-09 16:35:00,58.8,41.2,29.91,WSW,248,14.0,14.0,52,0.00,,,0.00,30,Wunderground v.1.15,2013-11-09 21:35:00,
2013-11-09 16:45:00,58.6,41.5,29.91,West,265,12.0,14.0,53,0.00,,,0.00,26,Wunderground v.1.15,2013-11-09 21:45:00,
2013-11-09 16:55:00,58.3,41.2,29.91,West,260,10.0,14.0,53,0.00,,,0.00,19,Wunderground v.1.15,2013-11-09 21:55:00,
2013-11-09 17:05:00,58.0,41.4,29.91,SW,236,12.0,17.0,54,0.00,,,0.00,16,Wunderground v.1.15,2013-11-09 22:05:00,
2013-11-09 17:15:00,57.8,41.7,29.92,West,265,11.0,13.0,55,0.00,,,0.00,11,Wunderground v.1.15,2013-11-09 22:15:00,
2013-11-09 17:25:00,57.5,41.9,29.92,WSW,251,12.0,12.0,56,0.00,,,0.00,5,Wunderground v.1.15,2013-11-09 22:25:00,
2013-11-09 17:35:00,57.1,42.0,29.92,WSW,257,10.0,12.0,57,0.00,,,0.00,0,Wunderground v.1.15,2013-11-09 22:35:00,
2013-11-09 17:45:00,56.8,41.7,29.92,SW,227,9.0,11.0,57,0.00,,,0.00,0,Wunderground v.1.15,2013-11-09 22:45:00,
2013-11-09 17:55:00,56.7,42.1,29.93,WSW,257,8.0,10.0,58,0.00,,,0.00,0,Wunderground v.1.15,2013-11-09 22:55:00,
2013-11-09 18:05:00,56.8,42.2,29.93,West,271,9.0,9.0,58,0.00,,,0.00,0,Wunderground v.1.15,2013-11-09 23:05:00,
2013-11-09 18:15:00,56.8,42.2,29.93,WSW,250,9.0,9.0,58,0.00,,,0.00,0,Wunderground v.1.15,2013-11-09 23:15:00,
2013-11-09 18:25:00,56.7,42.5,29.94,WSW,243,9.0,9.0,59,0.00,,,0.00,0,Wunderground v.1.15,2013-11-09 23:25:00,
2013-11-09 18:35:00,56.6,42.4,29.94,WSW,247,8.0,14.0,59,0.00,,,0.00,0,Wunderground v.1.15,2013-11-09 23:35:00,
2013-11-09 18:45:00,56.4,41.8,29.94,West,262,10.0,12.0,58,0.00,,,0.00,0,Wunderground v.1.15,2013-11-09 23:45:00,
2013-11-09 18:50:00,56.4,41.3,29.95,WSW,250,12.0,12.0,57,0.00,,,0.00,0,Wunderground v.1.15,2013-11-09 23:50:00,
2013-11-09 19:00:00,55.9,40.9,29.95,WNW,286,10.0,13.0,57,0.00,,,0.00,0,Wunderground v.1.15,2013-11-10 00:00:00,
2013-11-09 19:10:00,56.1,40.6,29.95,West,272,13.0,13.0,56,0.00,,,0.00,0,Wunderground v.1.15,2013-11-10 00:10:00,
2013-11-09 19:20:00,55.7,40.2,29.96,West,273,9.0,13.0,56,0.00,,,0.00,0,Wunderground v.1.15,2013-11-10 00:20:00,
2013-11-09 19:25:00,55.5,40.5,29.96,WNW,294,9.0,13.0,57,0.00,,,0.00,0,Wunderground v.1.15,2013-11-10 00:25:00,
2013-11-09 19:35:00,55.1,40.6,29.97,SW,233,9.0,15.0,58,0.00,,,0.00,0,Wunderground v.1.15,2013-11-10 00:35:00,
2013-11-09 19:45:00,54.8,40.3,29.97,WSW,252,8.0,9.0,58,0.00,,,0.00,0,Wunderground v.1.15,2013-11-10 00:45:00,
2013-11-09 19:55:00,54.4,40.4,29.97,West,263,8.0,8.0,59,0.00,,,0.00,0,Wunderground v.1.15,2013-11-10 00:55:00,
2013-11-09 20:05:00,54.0,40.4,29.97,WSW,258,6.0,13.0,60,0.00,,,0.00,0,Wunderground v.1.15,2013-11-10 01:05:00,
2013-11-09 20:10:00,54.0,40.4,29.97,West,268,8.0,12.0,60,0.00,,,0.00,0,Wunderground v.1.15,2013-11-10 01:10:00,
2013-11-09 20:20:00,53.7,40.1,29.97,WSW,257,8.0,8.0,60,0.00,,,0.00,0,Wunderground v.1.15,2013-11-10 01:20:00,
2013-11-09 20:30:00,53.3,40.2,29.97,West,264,6.0,8.0,61,0.00,,,0.00,0,Wunderground v.1.15,2013-11-10 01:30:00,
2013-11-09 20:40:00,52.9,40.2,29.97,WSW,253,7.0,11.0,62,0.00,,,0.00,0,Wunderground v.1.15,2013-11-10 01:40:00,
2013-11-09 20:50:00,52.7,40.5,29.97,WSW,258,7.0,7.0,63,0.00,,,0.00,0,Wunderground v.1.15,2013-11-10 01:50:00,
2013-11-09 21:00:00,52.3,40.1,29.97,WSW,246,8.0,14.0,63,0.00,,,0.00,0,Wunderground v.1.15,2013-11-10 02:00:00,
2013-11-09 21:10:00,52.0,40.2,29.98,NW,305,7.0,8.0,64,0.00,,,0.00,0,Wunderground v.1.15,2013-11-10 02:10:00,
2013-11-09 21:20:00,51.7,40.3,29.98,West,261,7.0,7.0,65,0.00,,,0.00,0,Wunderground v.1.15,2013-11-10 02:20:00,
2013-11-09 21:30:00,51.5,40.1,29.99,WSW,250,7.0,7.0,65,0.00,,,0.00,0,Wunderground v.1.15,2013-11-10 02:30:00,
2013-11-09 21:40:00,51.2,40.2,29.99,WSW,250,7.0,7.0,66,0.00,,,0.00,0,Wunderground v.1.15,2013-11-10 02:40:00,
2013-11-09 21:50:00,51.0,40.4,29.99,West,259,6.0,7.0,67,0.00,,,0.00,0,Wunderground v.1.15,2013-11-10 02:50:00,
2013-11-09 22:00:00,50.7,40.1,29.99,WSW,249,7.0,7.0,67,0.00,,,0.00,0,Wunderground v.1.15,2013-11-10 03:00:00,
2013-11-09 22:10:00,50.4,40.2,29.99,West,259,7.0,8.0,68,0.00,,,0.00,0,Wunderground v.1.15,2013-11-10 03:10:00,
2013-11-09 22:20:00,50.2,40.0,29.99,West,272,7.0,11.0,68,0.00,,,0.00,0,Wunderground v.1.15,2013-11-10 03:20:00,
2013-11-09 22:30:00,50.2,39.7,29.99,WSW,256,8.0,8.0,67,0.00,,,0.00,0,Wunderground v.1.15,2013-11-10 03:30:00,
2013-11-09 22:40:00,50.2,39.7,29.99,West,266,9.0,9.0,67,0.00,,,0.00,0,Wunderground v.1.15,2013-11-10 03:40:00,
2013-11-09 22:50:00,50.0,40.6,30.00,WNW,294,7.0,13.0,70,0.00,,,0.00,0,Wunderground v.1.15,2013-11-10 03:50:00,
2013-11-09 23:00:00,50.1,39.2,30.00,West,261,9.0,9.0,66,0.00,,,0.00,0,Wunderground v.1.15,2013-11-10 04:00:00,
2013-11-09 23:10:00,50.1,39.2,29.99,WNW,296,10.0,22.0,66,0.00,,,0.00,0,Wunderground v.1.15,2013-11-10 04:10:00,
2013-11-09 23:20:00,50.0,39.5,30.00,West,265,10.0,14.0,67,0.00,,,0.00,0,Wunderground v.1.15,2013-11-10 04:20:00,
2013-11-09 23:30:00,49.7,39.6,30.00,WSW,249,9.0,9.0,68,0.00,,,0.00,0,Wunderground v.1.15,2013-11-10 04:30:00,
2013-11-09 23:40:00,49.5,39.4,30.00,West,273,10.0,11.0,68,0.00,,,0.00,0,Wunderground v.1.15,2013-11-10 04:40:00,
2013-11-09 23:50:00,49.2,39.1,30.00,NW,309,9.0,9.0,68,0.00,,,0.00,0,Wunderground v.1.15,2013-11-10 04:50:00,